Waarnemingen

Advertentie
Mijn weer
Cazaux, Frankrijk (7502): temperatuur & dauwpunt: 14.10.2018 15:00:00 - 20.10.2018 15:00:00 (CEST)Cazaux, Frankrijk (7502): temperatuur 5cm: 14.10.2018 15:00:00 - 20.10.2018 15:00:00 (CEST)Cazaux, Frankrijk (7502): temperatuur -20cm & temperatuur -100cm: 14.10.2018 15:00:00 - 20.10.2018 15:00:00 (CEST)Cazaux, Frankrijk (7502): windsnelheid & windstoten: 14.10.2018 15:00:00 - 20.10.2018 15:00:00 (CEST)Cazaux, Frankrijk (7502): windrichting: 14.10.2018 15:00:00 - 20.10.2018 15:00:00 (CEST)Cazaux, Frankrijk (7502): luchtdruk: 14.10.2018 15:00:00 - 20.10.2018 15:00:00 (CEST)Cazaux, Frankrijk (7502): zicht: 14.10.2018 15:00:00 - 20.10.2018 15:00:00 (CEST)Cazaux, Frankrijk (7502): neerslag: 14.10.2018 15:00:00 - 20.10.2018 15:00:00 (CEST)
Datum & Tijd tt [°C] td [°C] tt 5cm [°C] tt -20cm [°C] tt -100cm [°C] ff [km/u] ff [kn] fx [km/u] fx [kn] dd ppp [hPa] vv [km] rr [mm]
20.10.2018 15:00:00 22,5 13,6 26,0 17,1 20,5 7 4 13 7 ZZW 1024,4 16 0,0
20.10.2018 14:00:00 21,7 13,1 25,5 17,2 20,5 6 3 12 7 Z 1024,9 16 0,0
20.10.2018 13:00:00 20,0 13,0 21,2 17,2 20,5 6 4 13 7 Z 1025,3 13 0,0
20.10.2018 12:00:00 16,8 12,5 19,5 17,2 20,5 9 5 14 7 O 1025,2 10 0,0
20.10.2018 11:00:00 13,8 12,0 14,9 17,3 20,5 9 5 18 10 NNO 1025,2 6 0,0
20.10.2018 10:00:00 11,6 11,1 8,1 17,4 20,5 10 5 13 7 N 1024,8 2,5 0,0
20.10.2018 09:00:00 9,1 8,6 4,5 17,5 20,5 6 3 10 5 N 1024,1 0,6 0,0
20.10.2018 08:00:00 7,7 7,1 4,4 17,5 20,5 4 2 7 4 N 1023,4 0,2 0,0
20.10.2018 07:00:00 8,8 8,0 5,6 17,7 20,5 5 3 7 4 N 1022,9 0,2 0,0
20.10.2018 06:00:00 10,0 9,2 5,5 17,7 20,5 7 4 9 5 N 1022,4 2,4 0,0
20.10.2018 05:00:00 11,4 10,6 7,6 17,8 20,5 9 5 13 7 N 1021,8 4,6 0,0
20.10.2018 04:00:00 11,7 10,6 8,4 17,8 20,5 5 3 13 7 NNO 1021,9 4,7 0,0
20.10.2018 03:00:00 11,6 10,0 8,8 17,9 20,5 6 3 13 7 N 1021,7 5 0,0
20.10.2018 02:00:00 12,3 10,7 9,2 17,9 20,5 8 4 11 6 N 1021,8 7 0,0
20.10.2018 01:00:00 13,8 11,0 12,0 17,9 20,5 9 5 14 8 N 1021,8 8 0,0
20.10.2018 00:00:00 15,0 11,8 13,2 18,0 20,5 8 4 18 10 NNO 1021,7 10 0,0
19.10.2018 23:00:00 15,5 12,1 13,2 17,9 20,5 12 6 20 11 NNO 1021,5 12 0,0
19.10.2018 22:00:00 15,8 12,2 11,8 17,9 20,5 11 6 20 11 N 1021,4 17 0,0
19.10.2018 21:00:00 15,4 11,8 11,8 17,9 20,5 8 4 12 7 N 1020,6 20 0,0
19.10.2018 20:00:00 16,8 12,1 12,8 17,8 20,5 7 4 12 7 N 1019,9 24 0,0
19.10.2018 19:00:00 20,8 11,4 20,3 17,7 20,6 11 6 18 10 NO 1018,8 26 0,0
19.10.2018 18:00:00 22,6 11,3 25,5 17,5 20,6 12 6 19 10 NNO 1018,4 26 0,0
19.10.2018 17:00:00 22,3 13,1 25,3 17,4 20,5 10 5 24 13 NNW 1018,3 20 0,0
19.10.2018 16:00:00 23,1 10,5 28,4 17,3 20,6 16 9 27 14 N 1018,0 28 0,0
19.10.2018 15:00:00 22,2 11,6 28,5 17,3 20,6 14 8 24 13 N 1018,3 26 0,0
19.10.2018 14:00:00 21,5 11,8 26,5 17,3 20,6 8 4 15 8 NO 1018,9 20 0,0
19.10.2018 13:00:00 20,0 11,5 24,9 17,3 20,6 3 2 11 6 N 1019,5 23 0,0
19.10.2018 12:00:00 17,9 12,1 19,8 17,3 20,6 4 2 13 7 NNO 1019,5 18 -
19.10.2018 11:00:00 15,9 12,6 16,9 17,4 20,6 5 3 - - ONO 1019,2 11 -
19.10.2018 10:00:00 13,9 12,5 11,9 17,5 20,6 5 3 19 11 OZO 1018,5 8 0,0
19.10.2018 09:00:00 11,8 11,5 8,5 17,5 20,6 14 8 19 10 N 1017,3 8 0,2
19.10.2018 08:00:00 10,7 10,4 7,8 17,6 20,6 8 5 10 6 N 1017,4 8 0,0
19.10.2018 07:00:00 11,0 10,7 6,9 17,7 20,6 10 5 13 7 N 1017,5 8 0,0
19.10.2018 06:00:00 10,5 9,7 7,2 17,7 20,6 0 0 10 5 N 1017,7 6 0,0
19.10.2018 05:00:00 12,4 11,6 10,1 17,8 20,6 8 5 16 9 N 1017,2 10 0,0
19.10.2018 04:00:00 12,6 12,0 10,1 17,9 20,6 6 3 16 8 N 1017,3 12 0,0
19.10.2018 03:00:00 13,3 13,0 11,2 17,9 20,6 12 7 15 8 N 1017,0 11 0,0
19.10.2018 02:00:00 13,0 12,7 11,3 17,9 20,6 10 5 14 8 N 1017,0 10 0,0
19.10.2018 01:00:00 13,7 13,4 11,2 17,9 20,6 9 5 11 6 N 1017,0 9 0,0
19.10.2018 00:00:00 13,6 13,3 10,9 18,0 20,6 9 5 12 6 N 1016,9 11 0,0
18.10.2018 23:00:00 13,8 13,5 11,3 18,0 20,6 9 5 10 5 N 1017,0 12 0,0
18.10.2018 22:00:00 14,1 13,8 12,4 17,9 20,6 8 4 11 6 NNW 1016,8 11 0,0
18.10.2018 21:00:00 15,6 15,1 13,0 17,9 20,6 3 1 6 3 NW 1016,6 6 0,0
18.10.2018 20:00:00 16,4 15,6 13,4 17,8 20,7 4 2 7 4 NNW 1015,9 9 0,0
18.10.2018 19:00:00 18,8 14,7 16,8 17,6 20,5 4 2 11 6 N 1015,3 17 0,0
18.10.2018 18:00:00 20,2 15,8 21,0 17,6 20,6 6 3 16 8 NNW 1015,0 18 0,0
18.10.2018 17:00:00 20,6 16,4 23,1 17,5 20,6 8 4 16 8 NNW 1015,1 15 0,0
18.10.2018 16:00:00 20,5 16,1 22,3 17,5 20,6 7 4 13 7 NNW 1015,2 15 0,0
18.10.2018 15:00:00 19,1 16,7 19,4 17,4 20,6 3 2 8 5 NNW 1015,5 15 0,0
18.10.2018 14:00:00 17,9 16,6 17,7 17,4 20,6 4 2 9 5 NNO 1015,8 11 0,2
18.10.2018 13:00:00 17,8 16,1 18,6 17,4 20,7 5 3 8 5 NO 1016,5 11 0,2
18.10.2018 12:00:00 16,3 16,1 17,1 17,5 20,7 5 3 9 5 NO 1016,7 10 0,0
18.10.2018 11:00:00 14,6 14,6 14,8 17,5 20,7 3 2 8 4 O 1016,7 4,1 0,0
18.10.2018 10:00:00 13,3 13,3 11,9 17,6 20,7 4 2 6 4 N 1016,3 3,0 0,0
18.10.2018 09:00:00 12,0 12,0 9,6 17,7 20,6 5 3 7 4 N 1015,9 0,1 0,0
18.10.2018 08:00:00 11,9 11,9 8,0 17,7 20,7 5 3 7 4 N 1015,5 0,2 0,0
18.10.2018 07:00:00 10,1 9,9 8,6 17,8 20,7 0 0 3 2 N 1015,2 0,3 0,0
18.10.2018 06:00:00 11,1 10,9 8,2 17,8 20,7 2 1 4 2 N 1015,2 0,9 0,0
18.10.2018 05:00:00 10,4 10,1 8,6 17,9 20,7 0 0 4 2 N 1015,0 0,2 0,0
18.10.2018 04:00:00 12,7 12,4 9,7 17,9 20,7 2 1 8 4 NW 1015,0 2,1 0,0
18.10.2018 03:00:00 13,1 12,5 11,5 18,0 20,7 0 0 9 5 N 1015,7 8 0,0
18.10.2018 02:00:00 14,5 14,0 12,5 18,0 20,7 9 5 13 7 N 1016,0 12 0,0
18.10.2018 01:00:00 13,4 13,1 10,9 18,0 20,7 9 5 13 7 N 1016,1 9 0,0
18.10.2018 00:00:00 13,3 12,7 11,1 18,0 20,7 6 4 13 7 N 1016,2 9 0,0
17.10.2018 23:00:00 15,1 14,1 14,2 18,1 20,7 9 5 19 10 NNO 1016,1 7 0,0
17.10.2018 22:00:00 15,6 14,6 12,6 18,0 20,7 10 6 14 8 NNO 1015,9 9 0,0
17.10.2018 21:00:00 15,6 13,1 13,1 18,0 20,7 5 3 10 6 NNO 1015,8 18 0,0
17.10.2018 20:00:00 16,3 13,4 14,5 17,9 20,7 4 2 11 6 NO 1015,5 19 0,0
17.10.2018 19:00:00 17,1 13,6 16,2 17,9 20,7 10 6 16 9 O 1015,2 22 0,0
17.10.2018 18:00:00 18,9 13,5 19,5 17,8 20,7 13 7 17 9 NO 1014,8 26 0,0
17.10.2018 17:00:00 19,0 14,3 19,8 17,7 20,8 9 5 16 9 ONO 1015,4 24 0,0
17.10.2018 16:00:00 19,3 14,3 20,9 17,6 20,7 12 7 19 10 O 1015,6 22 0,0
17.10.2018 15:00:00 19,2 13,6 20,0 17,6 20,8 8 5 14 8 ONO 1016,0 23 0,0
17.10.2018 14:00:00 19,4 13,3 20,8 17,5 20,8 7 4 21 12 NO 1016,8 27 0,0
17.10.2018 13:00:00 19,7 12,7 24,0 17,5 20,8 14 8 20 11 NNO 1017,3 24 0,0
17.10.2018 12:00:00 18,0 12,9 19,7 17,6 20,8 6 4 16 8 NNO 1018,0 30 0,0
17.10.2018 11:00:00 16,6 12,9 14,9 17,6 20,8 11 6 17 9 NO 1018,4 29 0,0
17.10.2018 10:00:00 14,2 12,9 12,6 17,7 20,8 6 4 10 5 NNO 1018,6 31 0,0
17.10.2018 09:00:00 13,0 12,2 12,3 17,7 20,8 4 2 9 5 N 1018,5 32 0,0
17.10.2018 08:00:00 13,4 12,6 12,7 17,8 20,8 6 3 11 6 NNO 1018,5 21 0,0
17.10.2018 07:00:00 13,3 12,7 12,5 17,9 20,8 5 3 18 10 N 1018,7 24 0,0
17.10.2018 06:00:00 12,8 12,6 11,8 17,9 20,8 10 5 14 7 NNW 1018,6 23 0,0
17.10.2018 05:00:00 11,9 11,7 9,4 18,0 20,8 7 4 10 6 N 1018,6 23 0,0
17.10.2018 04:00:00 11,0 10,7 8,2 18,0 20,8 6 4 11 6 NNW 1018,8 28 0,0
17.10.2018 03:00:00 11,7 11,1 9,0 18,1 20,8 3 1 8 4 N 1019,3 30 0,0
17.10.2018 02:00:00 12,5 11,6 10,0 18,1 20,8 7 4 11 6 N 1019,4 35 0,0
17.10.2018 01:00:00 13,0 11,9 10,3 18,2 20,8 8 4 14 8 N 1019,8 33 0,0
17.10.2018 00:00:00 12,3 11,5 10,0 18,2 20,8 6 3 13 7 N 1020,1 22 0,0
16.10.2018 23:00:00 12,9 11,8 11,5 18,2 20,8 10 5 15 8 NNW 1020,3 27 0,0
16.10.2018 22:00:00 13,5 11,9 12,0 18,2 20,8 10 5 16 9 N 1020,1 23 0,0
16.10.2018 21:00:00 14,5 11,3 13,2 18,2 20,8 11 6 20 11 NNW 1019,6 22 0,0
16.10.2018 20:00:00 14,9 11,3 13,7 18,1 20,8 11 6 17 9 NW 1019,3 32 0,0
16.10.2018 19:00:00 17,1 11,1 17,3 18,0 20,8 11 6 23 12 NNW 1018,8 40 0,0
16.10.2018 18:00:00 18,6 11,7 21,3 17,9 20,8 16 8 29 16 NNW 1018,4 33 0,0
16.10.2018 17:00:00 19,2 11,0 22,1 17,8 20,9 17 9 30 16 NW 1018,2 46 0,0
16.10.2018 16:00:00 19,8 12,1 24,8 17,7 20,9 18 10 27 15 NW 1018,1 49 0,0
16.10.2018 15:00:00 20,7 11,6 23,6 17,7 20,8 10 5 23 12 NNW 1017,9 43 0,0
16.10.2018 14:00:00 20,3 10,4 26,6 17,7 20,8 10 5 21 12 N 1017,9 55 0,0
16.10.2018 13:00:00 19,5 10,8 25,3 17,7 20,9 9 5 19 10 N 1018,0 52 0,0
16.10.2018 12:00:00 18,1 11,9 20,8 17,8 20,9 7 4 16 9 NNO 1017,7 49 0,0
16.10.2018 11:00:00 15,7 14,2 18,4 17,9 20,9 9 5 14 8 ONO 1017,7 20 0,0
16.10.2018 10:00:00 12,3 12,3 10,8 18,0 20,8 3 2 6 3 N 1017,3 10 0,0
16.10.2018 09:00:00 9,4 9,4 6,5 18,1 20,8 5 3 8 4 N 1016,4 7 0,2
16.10.2018 08:00:00 8,1 8,1 5,5 18,2 20,9 5 3 7 4 NW 1015,9 7 0,0
16.10.2018 07:00:00 9,0 9,0 6,5 18,3 20,8 3 2 6 3 NNO 1015,3 1,2 0,0
16.10.2018 06:00:00 9,6 9,6 8,3 18,4 20,8 6 3 8 5 N 1014,9 0,5 0,0
16.10.2018 05:00:00 10,2 10,2 9,6 18,5 20,9 6 3 14 7 N 1014,5 0,1 0,0
16.10.2018 04:00:00 10,8 10,8 7,9 18,6 20,9 6 4 8 5 NNO 1014,4 0,2 0,2
16.10.2018 03:00:00 10,9 10,7 8,4 18,6 20,9 5 3 11 6 NNO 1014,0 0,6 0,0
16.10.2018 02:00:00 11,0 10,8 8,8 18,7 20,9 6 3 10 5 N 1013,7 8 0,0
16.10.2018 01:00:00 11,4 10,9 8,9 18,8 20,9 5 3 8 4 N 1013,3 15 0,0
16.10.2018 00:00:00 12,9 12,1 10,7 18,8 20,9 5 3 14 7 NNO 1013,0 18 0,0
15.10.2018 23:00:00 13,7 13,1 11,4 18,8 20,9 9 5 14 8 NNO 1012,7 34 0,0
15.10.2018 22:00:00 12,8 12,0 11,2 18,8 20,9 10 5 12 6 N 1012,0 32 0,0
15.10.2018 21:00:00 13,5 12,6 11,7 18,8 20,9 8 5 11 6 N 1011,3 28 0,0
15.10.2018 20:00:00 14,1 11,8 12,3 18,7 20,9 8 4 14 8 NNW 1010,7 29 0,0
15.10.2018 19:00:00 16,8 11,7 17,1 18,6 20,9 10 5 15 8 NNW 1009,8 32 0,0
15.10.2018 18:00:00 18,7 11,0 22,9 18,5 20,9 9 5 17 9 N 1009,3 35 0,0
15.10.2018 17:00:00 19,6 9,8 23,4 18,4 20,9 4 2 11 6 NNO 1009,0 52 0,0
15.10.2018 16:00:00 19,1 10,9 21,8 18,4 20,9 4 2 14 8 ZW 1008,8 31 0,0
15.10.2018 15:00:00 17,6 11,8 18,9 18,4 20,9 5 3 10 5 N 1008,8 45 0,0
15.10.2018 14:00:00 17,0 11,7 18,8 18,4 20,9 6 3 12 6 N 1008,8 47 0,0
15.10.2018 13:00:00 16,0 13,3 15,7 18,4 20,9 3 2 10 5 N 1008,8 37 0,2
15.10.2018 12:00:00 15,1 14,6 15,2 18,5 20,9 5 3 10 5 O 1008,5 12 0,4
15.10.2018 11:00:00 14,7 14,5 14,8 18,6 20,9 3 2 5 3 NO 1008,2 25 0,0
15.10.2018 10:00:00 14,1 14,1 13,0 18,6 20,9 0 0 5 3 N 1008,2 27 0,0
15.10.2018 09:00:00 13,4 13,4 12,6 18,7 20,9 4 2 6 3 ONO 1007,9 12 0,0
15.10.2018 08:00:00 13,0 13,0 12,5 18,7 20,9 3 1 4 2 W 1007,8 15 0,0
15.10.2018 07:00:00 13,2 13,2 12,6 18,8 20,9 0 0 4 2 N 1007,7 10 0,2
15.10.2018 06:00:00 13,3 13,3 12,5 18,9 20,9 0 0 4 2 N 1007,8 18 0,0
15.10.2018 05:00:00 13,1 13,1 12,4 18,9 20,9 0 0 9 5 N 1008,2 11 0,0
15.10.2018 04:00:00 13,4 13,2 12,6 19,0 20,9 3 2 5 3 O 1008,6 14 0,0
15.10.2018 03:00:00 13,7 13,5 12,8 19,1 20,9 0 0 4 2 N 1009,0 18 0,0
15.10.2018 02:00:00 13,0 12,8 11,6 19,1 20,9 2 1 4 2 ZO 1009,3 23 0,0
15.10.2018 01:00:00 13,0 12,7 11,1 19,2 20,9 0 0 5 3 N 1009,3 19 0,0
15.10.2018 00:00:00 13,6 13,1 11,1 19,2 20,9 2 1 5 3 W 1009,4 8 0,0
14.10.2018 23:00:00 14,5 13,7 13,0 19,3 20,9 3 2 17 9 W 1009,1 31 0,0
14.10.2018 22:00:00 15,4 14,6 14,6 19,3 20,9 10 5 16 9 WNW 1008,6 29 0,0
14.10.2018 21:00:00 15,1 14,3 14,5 19,3 20,9 12 6 32 17 W 1008,4 6 0,0
14.10.2018 20:00:00 15,7 15,1 15,1 19,3 20,9 10 5 26 14 WNW 1007,5 19 0,2
14.10.2018 19:00:00 15,9 15,3 15,3 19,3 20,8 16 9 34 19 W 1006,8 7 0,4
14.10.2018 18:00:00 16,2 15,9 15,9 19,3 20,8 24 13 49 26 W 1005,2 19 0,0
14.10.2018 17:00:00 17,2 16,9 17,1 19,3 20,9 22 12 36 19 ZW 1004,9 18 0,4
14.10.2018 16:00:00 17,2 16,7 16,9 19,2 20,9 16 9 46 25 ZW 1005,4 17 10,7
14.10.2018 15:00:00 18,6 17,9 18,1 19,2 20,9 14 8 20 11 Z 1005,7 7 1,0

tt = temperatuur
td = dauwpunt
tt 5cm = temperatuur 5cm
tt -20cm = temperatuur -20cm
tt -100cm = temperatuur -100cm
ff = windsnelheid
fx = windstoten
dd = windrichting
ppp = luchtdruk
vv = zicht
rr = neerslag

Weerstations in de omgeving